This is the latest recevied weather packets stored in our database for station/object VK4TOM-13. If no packets are shown the sender has not sent any weather packets the latest 10 day(s).
| Time | Temp. | Humidity | Pressure | Rain* | Wind** | Luminosity | Snow |
|---|---|---|---|---|---|---|---|
| 1777962370 | 26.11° C | 70% | 1013.9 hPa | 0 mm | - | - | - |
| 1777961769 | 26.67° C | 70% | 1013.8 hPa | 0 mm | - | - | - |
| 1777961168 | 27.22° C | 70% | 1013.7 hPa | 0 mm | - | - | - |
| 1777960567 | 27.22° C | 70% | 1013.7 hPa | 0 mm | - | - | - |
| 1777959966 | 27.22° C | 70% | 1013.7 hPa | 0 mm | - | - | - |
| 1777959365 | 27.78° C | 70% | 1013.6 hPa | 0 mm | - | - | - |
| 1777958763 | 27.78° C | 70% | 1013.7 hPa | 0 mm | - | - | - |
| 1777958542 | 27.78° C | 70% | 1013.5 hPa | 0 mm | - | - | - |
| 1777958040 | 28.33° C | 70% | 1013.6 hPa | 0 mm | - | - | - |
| 1777957439 | 28.89° C | 70% | 1013.7 hPa | 0 mm | - | - | - |
| 1777956838 | 28.89° C | 70% | 1013.6 hPa | 0 mm | - | - | - |
| 1777956237 | 29.44° C | 70% | 1013.8 hPa | 0 mm | - | - | - |
| 1777955636 | 29.44° C | 70% | 1013.9 hPa | 0 mm | - | - | - |
| 1777955035 | 29.44° C | 70% | 1013.5 hPa | 0 mm | - | - | - |
| 1777954434 | 29.44° C | 70% | 1013.8 hPa | 0 mm | - | - | - |
| 1777953833 | 29.44° C | 70% | 1013.8 hPa | 0 mm | - | - | - |
| 1777953232 | 30° C | 70% | 1013.8 hPa | 0 mm | - | - | - |
| 1777952631 | 30° C | 70% | 1014 hPa | 0 mm | - | - | - |
| 1777952030 | 30° C | 70% | 1013.7 hPa | 0 mm | - | - | - |
| 1777951429 | 30.56° C | 70% | 1013.9 hPa | 0 mm | - | - | - |
| 1777950828 | 30.56° C | 70% | 1014 hPa | 0 mm | - | - | - |
| 1777949625 | 30° C | 70% | 1014.3 hPa | 0 mm | - | - | - |
| 1777948424 | 28.89° C | 70% | 1014.4 hPa | 0 mm | - | - | - |
| 1777948237 | 28.89° C | 70% | 1014.5 hPa | 0 mm | - | - | - |
| 1777947897 | 28.89° C | 70% | 1014.6 hPa | 0 mm | - | - | - |
* Rain since midnight (hover to see other rain measurements)
** Current wind speed in m/s (hover to see current wind gust speed)